Location: Newark
(40.4747°S, 176.7700°E)
Time: 08:08:15
(UTC+00:00)

ISS - Visible Passes

Search period start: 22 January 2020 00:00
Search period end: 01 February 2020 00:00
Orbit: 415 x 421 km, 51.6° (Epoch: 22 January)

Date Brightness Start Highest point End Pass type
(mag) Time Alt. Az. Time Alt. Az. Time Alt. Az.
24 Jan -1.6 16:33:50 10° N 16:36:27 21° NE 16:39:04 10° E visible
25 Jan -1.1 15:47:16 10° NNE 15:48:38 12° NE 15:50:00 10° ENE visible
26 Jan -3.4 16:33:37 10° NW 16:36:57 62° NE 16:40:20 10° ESE visible
27 Jan -2.6 15:47:27 22° N 15:49:01 34° NE 15:52:09 10° ESE visible
28 Jan -1.7 15:01:23 20° NE 15:01:23 20° NE 15:03:40 10° E visible
28 Jan -3.1 16:34:22 10° WNW 16:37:39 47° SSW 16:40:59 10° SE visible
29 Jan -3.8 15:48:11 33° WNW 15:49:34 79° SW 15:52:59 10° SE visible
30 Jan -3.2 15:02:00 52° E 15:02:00 52° E 15:04:53 10° ESE visible
30 Jan -1.9 16:35:42 10° WSW 16:38:32 24° SSW 16:41:22 10° SSE visible
31 Jan -1.0 14:15:45 16° ESE 14:15:45 16° ESE 14:16:38 10° ESE visible
31 Jan -2.4 15:48:40 21° WSW 15:50:18 32° SSW 15:53:27 10° SE visible
